Home > Weather > Namsos > Past weeks

Flag for Norway Past Weather in Namsos, Norway — Yesterday and Last 2 Weeks

Now
54 °F

Cool.


Feels Like: 51 °F
Forecast: 48 / 62 °F
Wind: 10 mph from Northwest

Location: Buholmrasa Fyr

Current Time: Aug 27, 2016 at 3:41:41 PM

Latest Report: Aug 27, 2016 at 3:00 PM


Visibility: N/A

Pressure: 29.98 "Hg

Humidity: 68%

Dew Point: 44 °F

Location of NamsosLocation

Past Weather in Namsos — Graph

°F

Namsos Temperature Yesterday

Maximum temperature yesterday: 62 °F (at 2:00 PM)
Minimum temperature yesterday: 51 °F (at 3:00 AM)
Average temperature yesterday: 56 °F

High & Low Weather Summary for the Past Weeks

 TemperatureHumidityPressure
High73 °F (Aug 21, 1:00 PM)97% (Aug 16, 3:00 AM)30.30 "Hg (Aug 16, 3:00 AM)
Low51 °F (Aug 17, 5:00 AM)48% (Aug 18, 3:00 PM)29.21 "Hg (Aug 26, 11:00 PM)
Average57 °F77%29.97 "Hg
* Reported Aug 12 2:00 PM — Aug 27 2:00 PM, Namsos, Weather by CustomWeather, © 2016

Note: Actual official high and low records may vary slightly from our data, if they occured in-between our weather recording intervals... More about our weather records

Advertising

Namsos Weather History for the Previous 24 Hours

Scroll right to see more
 ConditionsComfort  
Time TempWeatherWind HumidityBarometerVisibility
2:00 PM
Sat, Aug 27
54 °FCool.12 mph70%29.95 "HgN/A
1:00 PM55 °FCool.14 mph72%29.89 "HgN/A
12:00 PM54 °FCool.14 mph81%29.85 "HgN/A
11:00 AM55 °FCool.16 mph81%29.80 "HgN/A
10:00 AM55 °FCool.15 mph81%29.76 "HgN/A
9:00 AM56 °FCool.17 mph82%29.70 "HgN/A
8:00 AM56 °FCool.17 mph83%29.65 "HgN/A
7:00 AM56 °FCool.21 mph80%29.57 "HgN/A
6:00 AM56 °FCool.22 mph85%29.50 "HgN/A
5:00 AM55 °FCool.23 mph88%29.47 "HgN/A
4:00 AM55 °FCool.22 mph90%29.41 "HgN/A
2:00 AM54 °FCool.22 mph91%29.32 "HgN/A
12:00 AM55 °FCool.15 mph95%29.21 "HgN/A
11:00 PM
Fri, Aug 26
57 °FCool.14 mph94%29.21 "HgN/A
10:00 PM58 °FCool.13 mph88%29.23 "HgN/A
9:00 PM56 °FCool.2 mph95%29.29 "HgN/A
8:00 PM56 °FCool.5 mph90%29.32 "HgN/A
7:00 PM55 °FCool.7 mph90%29.35 "HgN/A
6:00 PM56 °FCool.8 mph91%29.44 "HgN/A
5:00 PM58 °FCool.8 mph81%29.54 "HgN/A
4:00 PM57 °FCool.8 mph83%29.62 "HgN/A
3:00 PM61 °FCool.7 mph68%29.69 "HgN/A
Weather by CustomWeather, © 2016

See weather overviewHow to use our weather pages